User: anonymous   Login
Location: Oshawa
(43.9000°N, 78.8670°W)
Time: 06:38:22
(UTC-04:00)
Language:

Explorer 7 - Orbit

View from above orbital plane
View from above orbital plane
View from above satellite
View from above satellite

Ground track
Ground track

The orbit data is extracted from the following two-line orbital elements,

1 00022U 59009A   15090.45883162  .00003446  00000-0  29785-3 0  9990
2 00022 050.2852 025.6586 0148532 192.4468 167.2793 14.91641357940499
Epoch (UTC): 31 March 2015 11:00:43
Eccentricity: 0.0148532
inclination: 50.2852°
perigee height: 489 km
apogee height: 696 km
right ascension of ascending node: 25.6586°
argument of perigee: 192.4468°
revolutions per day: 14.91641357
mean anomaly at epoch: 167.2793°
orbit number at epoch: 94049

The dashed part of the orbit path shows where the satellite is in the earth's shadow,  

DLR